• Join FlightAware (Why Join?)
  • Login
  • US Flag 
04:32AM EST


 

Airport Tracker/Info


-or-


 

Live Flight TrackerFlight Track Log ✈ ASQ5995 ✈ 19-Aug-2014 ✈ KORD - KCAK

Flight Track Log - Related Links

Times and Time Zones

All times are in EDT time to prevent confusion due to time zone crossing. See the ASQ5995 flight status page for this flight to view local times or setup timezone preferences in your user account.

Time Position Orientation Groundspeed Altitude Reporting Facility
EDT Latitude Longitude Course Direction KTS MPH feet Rate Location/Type
11:38PM 42.0167 -87.9333 90° East 162 186 2,900  Level Chicago TRACON
11:39PM 42.0667 -87.9000 26° Northeast 233 268 4,400 1,600 Climbing Chicago TRACON
11:40PM 41.9500 -87.4784 90° East  Level FlightAware Approximate
11:40PM 42.1167 -87.8333 45° Northeast 274 315 6,100  Level Chicago TRACON
11:41PM 41.9479 -87.3374 95° East  Level FlightAware Approximate
11:41PM 42.1633 -87.7089 63° Northeast 300 345 8,800  Level Chicago Center
11:42PM 41.9379 -87.1969 95° East  Level FlightAware Approximate
11:43PM 41.9333 -87.0561 90° East  Level FlightAware Approximate
11:43PM 42.1653 -87.5919 89° East 309 356 10,500  Level Chicago Center
11:44PM 42.1686 -87.4667 88° East 331 381 12,300 1,967 Climbing Chicago Center
11:45PM 42.1728 -87.3308 88° East 335 386 14,500 1,672 Climbing Chicago Center
11:46PM 42.1733 -87.2036 90° East 336 387 15,700 1,082 Climbing Chicago Center
11:47PM 42.1694 -87.0675 92° East 362 417 16,700 934 Climbing Chicago Center
11:48PM 42.1661 -86.9419 92° East 374 430 17,600 1,033 Climbing Chicago Center
11:49PM 42.1619 -86.7964 92° East 384 442 18,800 1,131 Climbing Chicago Center
11:50PM 42.1581 -86.6267 92° East 400 460 19,900 1,082 Climbing Chicago Center
11:51PM 42.1533 -86.4722 92° East 410 472 21,000 1,033 Climbing Chicago Center
11:52PM 42.1494 -86.3164 92° East 414 476 22,000 984 Climbing Chicago Center
11:53PM 42.1444 -86.1589 92° East 417 480 23,000 1,082 Climbing Chicago Center
11:54PM 42.1050 -86.0122 110° East 417 480 24,200 1,279 Climbing Chicago Center
11:55PM 42.0494 -85.8572 116° Southeast 416 479 25,600 1,230 Climbing Chicago Center
11:56PM 42.0069 -85.7353 115° Southeast 413 475 26,700 689 Climbing Chicago Center
11:57PM 41.9578 -85.5942 115° Southeast 413 475 27,000 148 Climbing Chicago Center
11:58PM 41.9039 -85.4428 116° Southeast 440 506 27,000  Level Chicago Center
11:59PM 41.8492 -85.2858 115° Southeast 457 526 27,000  Level Chicago Center
12:00AM 41.7911 -85.1261 116° Southeast 469 540 27,000  Level Chicago Center
12:01AM 41.7331 -84.9650 116° Southeast 472 543 27,000  Level Chicago Center
12:02AM 41.6856 -84.8369 116° Southeast 472 543 27,000  Level Cleveland Center
12:03AM 41.6450 -84.6664 108° East 485 558 27,000  Level Cleveland Center
12:04AM 41.6128 -84.4931 104° East 483 556 27,000  Level Cleveland Center
12:05AM 41.5806 -84.3200 104° East 483 556 27,000  Level Cleveland Center
12:06AM 41.5483 -84.1500 104° East 483 556 27,000 -197 Level Cleveland Center
12:07AM 41.5161 -83.9778 104° East 483 556 26,600 -893 Descending Cleveland Center
12:08AM 41.4778 -83.8119 107° East 473 544 25,200 -1,488 Descending Cleveland Center
12:09AM 41.4494 -83.6486 103° East 460 529 23,600 -1,686 Descending Cleveland Center
12:10AM 41.4533 -83.4592 88° East 431 496 21,800 -1,289 Descending Cleveland Center
12:11AM 41.4569 -83.3031 88° East 427 491 21,000 -393 Descending Cleveland Center
12:12AM 41.4600 -83.1475 88° East 422 486 21,000  Level Cleveland Center
12:13AM 41.4667 -82.9869 87° East 430 495 21,000  Level Cleveland Center
12:14AM 41.4617 -82.8264 92° East 438 504 21,000 -645 Level Cleveland Center
12:15AM 41.4267 -82.6789 108° East 424 488 19,700 -1,587 Descending Cleveland Center
12:16AM 41.4064 -82.5250 100° East 424 488 17,800 -1,934 Descending Cleveland Center
12:17AM 41.3953 -82.3761 96° East 412 474 15,800 -1,934 Descending Cleveland Center
12:18AM 41.3858 -82.2267 95° East 409 471 13,900 -1,377 Descending Cleveland Center
12:19AM 41.3775 -82.0808 94° East 409 471 13,000 -446 Descending Cleveland Center
12:20AM 41.3617 -81.9394 98° East 394 453 13,000  Level Cleveland Center
12:21AM 41.3103 -81.8147 119° Southeast 384 442 13,000 -694 Level Cleveland Center
12:22AM 41.2594 -81.7161 124° Southeast 334 384 11,600 -1,934 Descending Cleveland Center
12:23AM 41.2125 -81.6225 124° Southeast 311 358 9,100 -2,479 Descending Cleveland Center
12:24AM 41.2181 -81.5119 86° East 306 352 6,600 -2,281 Descending Cleveland Center
12:25AM 41.1669 -81.4481 137° Southeast 297 342 4,500 -1,736 Descending Cleveland Center
12:26AM 41.1017 -81.4303 168° South 273 314 3,100 -744 Descending Cleveland Center
12:27AM 41.0308 -81.4356 183° South 238 274 3,000 -298 Descending Cleveland Center
12:28AM 40.9911 -81.4372 182° South 187 215 2,500 -500 Descending Cleveland Center